Location: Brienne
(49.4335°N, 4.0528°E)
Time: 10:49:39
(UTC+00:00)

Daily predictions for brighter satellites

Satellite Brightness Start Highest point End
(mag) Time Altitude Azimuth Time Altitude Azimuth Time Altitude Azimuth
Cosmos 2344 4.4 16:20:21 10° NW 16:27:04 35° NNE 16:35:07 10° E
CZ-4C R/B 2.8 16:26:03 10° WSW 16:30:24 43° NW 16:35:59 10° NE
ATLAS 2AS CENTAUR R/B 3.8 16:26:21 10° NW 16:31:56 25° N 16:37:27 10° ENE
Cosmos 2263 Rocket 4.4 16:29:52 10° WNW 16:32:34 14° NNW 16:35:18 10° N
Cosmos 1844 Rocket 4.1 16:29:15 10° WSW 16:34:17 34° NW 16:39:22 10° NNE
UNK 4.2 16:30:35 10° NNE 16:34:58 41° E 16:39:20 10° S
Cosmos 1459 Rocket 4.3 16:29:35 10° SSW 16:35:53 75° W 16:42:17 10° N
YAOGAN 1 4.2 16:34:03 10° E 16:36:06 13° ENE 16:38:09 10° NNE
COSMOS 2406 4.4 16:36:52 10° N 16:41:15 22° NE 16:45:38 10° E
Cosmos 2084 Rocket 3.4 16:37:27 10° SW 16:41:38 88° WNW 16:45:52 10° NE
ATLAS CENTAUR R/B 2.7 16:41:16 10° W 16:44:12 25° NW 16:47:09 10° NNE
Cosmos 1441 Rocket 3.6 16:42:35 10° NNW 16:45:53 56° W 16:49:10 10° S
SAR-Lupe-4 3.7 16:42:56 10° SE 16:46:23 49° ENE 16:49:52 10° N
Cosmos 1833 Rocket 3.1 16:41:08 10° NNW 16:46:47 72° WSW 16:52:23 10° SSE
ARIANE 5 R/B 2.5 16:42:13 10° SE 16:47:04 55° ENE 16:51:57 10° N
USA 215 3.4 16:47:59 10° SE 16:54:32 81° SW 17:01:07 10° WNW
Timation 1 Rocket 4.4 16:49:16 10° NNW 16:55:11 60° NE 17:01:04 10° SE
IRS-P3 4.3 16:52:43 10° SE 16:57:51 51° ENE 17:03:00 10° N
MOS 1 Rocket 3.6 16:56:00 10° SE 16:59:59 37° ENE 17:04:09 10° N
ATLAS 5 CENTAUR R/B 2.6 16:56:18 10° NW 17:00:34 54° SW 17:05:50 10° SSE
Timation 2 Rocket 4.5 16:55:04 10° S 17:01:36 48° ESE 17:08:08 10° NE
Cosmos 1484 Rocket 4.5 17:00:50 10° SSW 17:04:03 34° W 17:07:19 10° NNW
Resurs 01 Rocket 3.5 17:08:57 12° NE 17:08:57 12° NE 17:10:00 10° NNE
SJ-6F 4.4 17:04:38 10° SSE 17:08:25 51° ENE 17:12:15 10° N
Cosmos 2233 Rocket 4.1 17:02:20 10° S 17:08:39 87° W 17:15:02 10° N
RESURS DK-1 2.2 17:05:19 10° NNW 17:09:20 70° ENE 17:13:19 10° SE
Cosmos 1602 4.0 17:06:52 10° NNE 17:09:34 27° ENE 17:12:15 10° SE
Cosmos 407 Rocket 3.6 17:04:42 10° S 17:09:43 53° ESE 17:14:43 10° NNE
Cosmos 2061 Rocket 4.0 17:04:52 10° S 17:11:10 88° E 17:17:27 10° N
Geosat FO 4.3 17:12:17 10° SE 17:15:04 45° NE 17:17:50 10° NNW
ISS -3.2 17:12:10 10° SW 17:15:22 46° SSE 17:17:12 22° E
Cosmos 1782 Rocket 4.0 17:11:02 10° SSW 17:15:27 67° WNW 17:19:53 10° N
CZ-2D R/B 2.7 17:13:06 10° SSE 17:16:15 88° WSW 17:19:26 10° NNW
Cosmos 1869 3.0 17:13:43 10° S 17:17:11 58° E 17:20:38 10° NNE
ERS-1 4.5 17:13:05 10° SSE 17:18:14 83° ENE 17:23:22 10° NNW
USA 281 4.3 17:15:06 16° E 17:18:35 24° NE 17:23:37 10° N
SPOT 1/Viking Rocket 3.8 17:14:07 10° SE 17:19:00 46° ENE 17:23:58 10° N
Cosmos 1300 Rocket 4.3 17:15:21 10° SSW 17:19:40 54° WNW 17:23:58 10° N
COSMO-SKYMED 1 3.5 17:21:26 21° ENE 17:22:35 24° E 17:25:55 10° SSE
SJ-12 3.8 17:19:16 10° S 17:23:04 79° WSW 17:26:53 10° NNW
Cosmos 1464 Rocket 4.4 17:18:50 10° SSE 17:24:38 41° E 17:30:25 10° NNE
AQUARIUS 4.1 17:22:26 10° SSE 17:26:51 88° ENE 17:31:18 10° NNW
SL-12 R/B(2) 4.3 17:19:48 10° SSW 17:27:41 70° SE 17:36:59 11° NE
Cosmos 540 Rocket 3.4 17:24:11 10° NNW 17:29:21 88° WSW 17:34:28 10° SSE
BREEZE-M DEB (TANK) 2.4 17:27:10 10° WSW 17:29:38 58° SSE 17:32:21 23° E
Cosmos 1400 Rocket 3.6 17:27:58 10° SSE 17:31:11 27° E 17:31:12 27° E
Cosmos 1975 Rocket 3.9 17:28:22 10° NNW 17:32:36 53° W 17:36:51 10° S
Spot 4 Rocket 4.1 17:27:54 10° SE 17:32:49 51° ENE 17:37:45 10° N
Cosmos 1763 Rocket 3.8 17:29:37 10° NNW 17:34:49 69° WSW 17:39:55 10° SSE
Cosmos 1812 1.9 17:33:41 10° S 17:36:32 62° E 17:37:34 34° NNE
Cosmos 2034 Rocket 4.5 17:32:25 10° SSE 17:37:56 35° E 17:43:31 10° NNE
Cosmos 1140 Rocket 4.3 17:36:42 10° SW 17:41:43 49° WNW 17:46:43 10° NNE
Cosmos 2151 Rocket 3.8 17:37:30 10° SSE 17:41:47 46° E 17:45:29 14° NNE
Cosmos 2058 2.6 17:38:43 10° N 17:42:42 74° E 17:46:40 10° SSE
SMAP 4.5 17:38:39 10° SSW 17:43:01 41° W 17:47:27 10° NNW
Cosmos 44 Rocket 3.2 17:39:47 10° SSW 17:44:31 66° SE 17:47:06 27° NE
SKYMED 2 3.5 17:45:23 12° NNE 17:49:23 62° ESE 17:53:41 10° S
Cosmos 1943 Rocket 2.1 17:43:53 10° SSW 17:49:30 88° ESE 17:54:09 15° NNE
Helios 1A Rocket 3.3 17:51:57 32° SE 17:51:57 32° SE 17:54:12 10° S
Cosmos 1092 Rocket 4.4 17:45:28 10° N 17:51:13 36° ENE 17:54:58 19° SE
Okean 1 Rocket 3.5 17:47:38 10° SSE 17:51:42 38° E 17:51:42 38° E
CZ-2D R/B 3.3 17:47:44 10° SSE 17:51:52 82° ENE 17:56:06 10° NNW
SJ-7 4.0 17:48:14 10° SSE 17:51:53 63° ENE 17:55:32 10° N
IRAS Rocket 4.1 17:46:47 10° SSE 17:52:20 74° ENE 17:57:50 10° NNW
Sich 1 Rocket 4.0 17:48:30 10° SSE 17:52:44 40° E 17:53:29 37° ENE
PSLV R/B 3.3 17:49:29 10° SSE 17:53:28 60° ENE 17:57:26 10° N
Cosmos 2082 Rocket 2.1 17:47:53 10° NNW 17:53:33 90° SSW 17:59:10 10° SSE
Cosmos 1072 Rocket 4.3 17:51:38 10° S 17:57:44 75° E 18:03:51 10° NNE
Cosmos 2026 Rocket 4.2 17:52:03 10° N 17:57:51 44° ENE 18:03:40 10° SE
Cosmos 2278 Rocket 2.2 17:52:38 10° SSW 17:58:18 85° WNW 18:02:47 17° NNE
NOAA 6 4.0 17:55:11 10° SSE 18:00:12 57° ENE 18:05:15 10° N
Aureole 3 Rocket 2.8 17:58:17 10° SSW 18:01:16 58° WNW 18:03:12 21° N
BREEZE-M DEB (TANK) 3.3 17:58:31 10° SW 18:01:22 62° SSE 18:03:16 37° E
BREEZE-M DEB (TANK) 2.9 17:59:40 10° WSW 18:02:19 90° NNE 18:04:09 38° ENE
SL-16 R/B 4.3 18:00:01 10° N 18:05:16 29° WNW 18:10:30 10° WSW
Geosat 4.0 18:04:10 36° ESE 18:06:02 59° NE 18:10:59 10° NNW
Cosmos 2251 Rocket 3.4 18:03:48 10° SSW 18:09:05 89° E 18:12:38 22° NNE
YAOGAN 1 2.5 18:07:04 10° SSE 18:11:20 86° WSW 18:15:37 10° NNW
Cosmos 371 Rocket 3.3 18:08:00 10° S 18:12:40 54° ESE 18:12:52 54° E
Cosmos 304 Rocket 3.7 18:09:07 10° S 18:13:45 58° ESE 18:13:57 57° E
Cosmos 841 Rocket 3.4 18:09:19 10° NNW 18:14:35 75° ENE 18:17:16 30° SE
SJ 16-02 1.1 18:11:00 10° SSW 18:15:18 75° ESE 18:15:42 68° ENE
SL-19 R/B 4.1 18:10:21 10° SSE 18:15:33 84° WSW 18:20:50 10° NNW
Nadezhda 4 Rocket 4.1 18:13:39 10° NNW 18:19:58 79° W 18:26:11 10° S
CZ-4C R/B 3.9 18:16:04 10° WNW 18:20:15 22° N 18:22:35 18° NNE
Cosmos 1862 3.8 18:18:48 10° NNW 18:22:20 51° W 18:25:52 10° S
Resurs 1-3 3.7 18:19:02 10° S 18:23:19 70° WSW 18:27:38 10° NNW
ATLAS 2AS CENTAUR R/B 2.9 18:17:55 10° NW 18:24:29 48° NE 18:25:35 44° ENE
COSMOS 2406 3.1 18:20:37 10° NNW 18:26:20 90° ENE 18:29:07 32° SSE
Cosmos 1627 Rocket 4.3 18:22:20 10° N 18:28:27 69° ENE 18:34:36 10° SSE
Cosmos 1656 Rocket 4.0 18:24:09 10° S 18:28:33 45° SE 18:28:33 45° SE
Cosmos 2195 Rocket 4.4 18:27:31 10° N 18:33:52 90° NW 18:40:14 10° S
Okean 2 Rocket 3.4 18:32:15 10° SSW 18:36:36 64° W 18:37:52 43° NNW
Cosmos 1190 Rocket 4.4 18:34:48 10° SW 18:40:02 62° WNW 18:42:26 32° N
Cosmos 2344 3.8 18:34:48 10° NW 18:42:40 83° NE 18:47:32 35° SE
Cosmos 676 Rocket 3.9 18:37:34 10° SSW 18:42:53 89° WNW 18:43:15 79° NNE
Resurs 01 Rocket 3.3 18:46:23 25° N 18:46:23 25° N 18:48:14 10° NNW
Meteor 2-3 Rocket 3.7 18:40:04 10° NNW 18:45:48 79° W 18:49:59 19° S
Cosmos 2297 Rocket 4.5 18:47:29 10° N 18:48:17 11° N 18:48:17 11° N
ISS -1.2 18:48:46 10° W 18:50:07 22° W 18:50:07 22° W
Cosmos 1954 Rocket 4.4 18:47:48 10° SW 18:53:00 59° WNW 18:54:18 46° N
COSMO-SKYMED 1 3.8 18:57:47 37° WNW 18:58:02 38° WNW 19:01:51 10° SW
USA 281 3.0 19:02:00 79° E 19:02:16 80° ENE 19:08:53 10° NNW
Cosmos 1943 Rocket 4.2 19:29:40 10° W 19:33:59 22° NW 19:35:40 19° NNW
Cosmos 2278 Rocket 4.2 19:39:00 10° W 19:43:14 21° NW 19:44:37 19° NNW
SJ 16-02 4.3 19:51:14 10° W 19:52:17 13° WNW 19:52:17 13° WNW
CZ-4C R/B 4.5 20:05:23 10° NW 20:07:33 20° NNW 20:07:33 20° NNW
ATLAS 2AS CENTAUR R/B 3.9 20:08:58 10° NW 20:13:01 36° WNW 20:13:01 36° WNW
